| time (UTC) | temp F | wind direction | speed MPH | gust MPH | rain 1hr in | rain 24hr in | rain mn in | humidity % | barometer mb |
| 20260903075610 | 64 | 36 | 1.0 | 4.0 | 0.00 | 0.00 | 0.00 | 87 | 1016.7 |
| 20260903075528 | 64 | 36 | 1.0 | 4.0 | 0.00 | 0.00 | 0.00 | 87 | 1016.7 |
| 20260903075101 | 63 | 34 | 2.0 | 4.0 | 0.00 | 0.00 | 0.00 | 87 | 1016.7 |
| 20260903074612 | 64 | 35 | 3.0 | 4.0 | 0.00 | 0.00 | 0.00 | 88 | 1016.8 |
| 20260903074530 | 64 | 35 | 3.0 | 4.0 | 0.00 | 0.00 | 0.00 | 88 | 1016.8 |
| 20260903074105 | 64 | 38 | 1.0 | 3.0 | 0.00 | 0.00 | 0.00 | 88 | 1016.8 |
| 20260903074022 | 64 | 38 | 1.0 | 3.0 | 0.00 | 0.00 | 0.00 | 88 | 1016.8 |
| 20260903073514 | 63 | 36 | 0.0 | 1.0 | 0.00 | 0.00 | 0.00 | 87 | 1016.8 |
| 20260903073033 | 63 | 34 | 0.0 | 2.0 | 0.00 | 0.00 | 0.00 | 87 | 1016.7 |
| 20260903072547 | 63 | 35 | 0.0 | 2.0 | 0.00 | 0.00 | 0.00 | 87 | 1016.7 |
| 20260903072039 | 63 | 35 | 0.0 | 0.0 | 0.00 | 0.00 | 0.00 | 87 | 1016.7 |
| 20260903071541 | 63 | 32 | 0.0 | 0.0 | 0.00 | 0.00 | 0.00 | 86 | 1016.7 |
| 20260903071033 | 63 | 35 | 0.0 | 2.0 | 0.00 | 0.00 | 0.00 | 87 | 1016.7 |
| 20260903070525 | 63 | 35 | 0.0 | 2.0 | 0.00 | 0.00 | 0.00 | 87 | 1016.7 |
| 20260903070107 | 64 | 35 | 0.0 | 0.0 | 0.00 | 0.00 | 0.00 | 87 | 1016.7 |
| 20260903065541 | 64 | 36 | 0.0 | 0.0 | 0.00 | 0.00 | 0.00 | 87 | 1016.7 |
| 20260903065053 | 64 | 35 | 0.0 | 0.0 | 0.00 | 0.00 | 0.00 | 87 | 1016.8 |
| 20260903064552 | 64 | 35 | 0.0 | 0.0 | 0.00 | 0.00 | 0.00 | 87 | 1016.7 |
| 20260903064045 | 64 | 38 | 0.0 | 0.0 | 0.00 | 0.00 | 0.00 | 87 | 1016.7 |
| 20260903063518 | 64 | 36 | 0.0 | 0.0 | 0.00 | 0.00 | 0.00 | 86 | 1016.6 |
| 20260903063038 | 64 | 35 | 0.0 | 0.0 | 0.00 | 0.00 | 0.00 | 86 | 1016.8 |
| 20260903062550 | 64 | 38 | 0.0 | 0.0 | 0.00 | 0.00 | 0.00 | 86 | 1016.7 |
| 20260903062042 | 64 | 35 | 0.0 | 0.0 | 0.00 | 0.00 | 0.00 | 86 | 1016.7 |
| 20260903061613 | 64 | 36 | 0.0 | 0.0 | 0.00 | 0.00 | 0.00 | 85 | 1016.8 |
| 20260903061530 | 64 | 36 | 0.0 | 0.0 | 0.00 | 0.00 | 0.00 | 85 | 1016.8 |
| 20260903061044 | 64 | 35 | 0.0 | 1.0 | 0.00 | 0.00 | 0.00 | 85 | 1016.8 |
| 20260903060557 | 65 | 36 | 0.0 | 2.0 | 0.00 | 0.00 | 0.00 | 85 | 1016.8 |
| 20260903060014 | 65 | 38 | 1.0 | 2.0 | 0.00 | 0.00 | 0.00 | 85 | 1016.8 |
| 20260903055548 | 65 | 35 | 0.0 | 2.0 | 0.00 | 0.00 | 0.00 | 85 | 1016.8 |
| 20260903055101 | 65 | 38 | 1.0 | 2.0 | 0.00 | 0.00 | 0.00 | 85 | 1016.8 |
| 20260903054539 | 65 | 38 | 0.0 | 2.0 | 0.00 | 0.00 | 0.00 | 85 | 1016.9 |
| 20260903054106 | 65 | 35 | 0.0 | 2.0 | 0.00 | 0.00 | 0.00 | 85 | 1016.9 |
| 20260903054024 | 65 | 35 | 0.0 | 2.0 | 0.00 | 0.00 | 0.00 | 85 | 1016.9 |
| 20260903053557 | 65 | 37 | 0.0 | 2.0 | 0.00 | 0.00 | 0.00 | 85 | 1017.0 |
| 20260903053514 | 65 | 37 | 0.0 | 2.0 | 0.00 | 0.00 | 0.00 | 85 | 1017.0 |
| 20260903053014 | 65 | 34 | 1.0 | 2.0 | 0.00 | 0.00 | 0.00 | 84 | 1017.0 |
| 20260903052529 | 65 | 35 | 0.0 | 0.0 | 0.00 | 0.00 | 0.00 | 84 | 1017.0 |
| 20260903052026 | 65 | 38 | 0.0 | 0.0 | 0.00 | 0.00 | 0.00 | 84 | 1017.0 |
| 20260903051615 | 65 | 35 | 0.0 | 0.0 | 0.00 | 0.00 | 0.00 | 84 | 1017.0 |
| 20260903051048 | 65 | 36 | 0.0 | 0.0 | 0.00 | 0.00 | 0.00 | 84 | 1017.1 |
| 20260903050601 | 65 | 38 | 0.0 | 0.0 | 0.00 | 0.00 | 0.00 | 84 | 1017.0 |
| 20260903050111 | 65 | 36 | 0.0 | 0.0 | 0.00 | 0.00 | 0.00 | 83 | 1017.0 |
| 20260903045541 | 65 | 35 | 0.0 | 0.0 | 0.00 | 0.00 | 0.00 | 83 | 1017.0 |
| 20260903045013 | 65 | 36 | 0.0 | 0.0 | 0.00 | 0.00 | 0.00 | 82 | 1017.0 |
| 20260903044515 | 65 | 36 | 0.0 | 0.0 | 0.00 | 0.00 | 0.00 | 82 | 1017.0 |
| 20260903044108 | 66 | 38 | 0.0 | 0.0 | 0.00 | 0.00 | 0.00 | 81 | 1016.9 |
| 20260903044026 | 66 | 38 | 0.0 | 0.0 | 0.00 | 0.00 | 0.00 | 81 | 1016.9 |
| 20260903043518 | 66 | 35 | 0.0 | 0.0 | 0.00 | 0.00 | 0.00 | 81 | 1016.9 |
| 20260903043040 | 66 | 35 | 0.0 | 2.0 | 0.00 | 0.00 | 0.00 | 80 | 1016.9 |
| 20260903042517 | 66 | 35 | 0.0 | 2.0 | 0.00 | 0.00 | 0.00 | 81 | 1016.9 |
| 20260903042032 | 66 | 34 | 0.0 | 2.0 | 0.00 | 0.00 | 0.00 | 80 | 1016.8 |
| 20260903041553 | 67 | 34 | 0.0 | 2.0 | 0.00 | 0.00 | 0.00 | 79 | 1016.8 |
| 20260903041046 | 67 | 38 | 0.0 | 3.0 | 0.00 | 0.00 | 0.00 | 80 | 1016.8 |
| 20260903040615 | 68 | 38 | 2.0 | 4.0 | 0.00 | 0.00 | 0.00 | 81 | 1016.8 |
| 20260903040532 | 68 | 38 | 2.0 | 4.0 | 0.00 | 0.00 | 0.00 | 81 | 1016.8 |
| 20260903040031 | 67 | 35 | 3.0 | 4.0 | 0.00 | 0.00 | 0.00 | 81 | 1016.7 |
| 20260903035524 | 67 | 35 | 1.0 | 3.0 | 0.00 | 0.00 | 0.00 | 81 | 1016.6 |
| 20260903035022 | 68 | 34 | 2.0 | 3.0 | 0.00 | 0.00 | 0.00 | 81 | 1016.5 |
| 20260903034611 | 68 | 36 | 1.0 | 3.0 | 0.00 | 0.00 | 0.00 | 80 | 1016.4 |
| 20260903034102 | 68 | 34 | 1.0 | 3.0 | 0.00 | 0.00 | 0.00 | 80 | 1016.4 |
| 20260903033554 | 68 | 32 | 1.0 | 4.0 | 0.00 | 0.00 | 0.00 | 81 | 1016.4 |
| 20260903033052 | 68 | 35 | 2.0 | 5.0 | 0.00 | 0.00 | 0.00 | 80 | 1016.4 |
| 20260903032604 | 68 | 34 | 3.0 | 5.0 | 0.00 | 0.00 | 0.00 | 80 | 1016.3 |
| 20260903032522 | 68 | 34 | 3.0 | 5.0 | 0.00 | 0.00 | 0.00 | 80 | 1016.3 |
| 20260903032015 | 68 | 32 | 3.0 | 4.0 | 0.00 | 0.00 | 0.00 | 79 | 1016.2 |
| 20260903031537 | 68 | 36 | 2.0 | 5.0 | 0.00 | 0.00 | 0.00 | 79 | 1016.2 |
| 20260903031109 | 68 | 35 | 3.0 | 5.0 | 0.00 | 0.00 | 0.00 | 79 | 1016.1 |
| 20260903030541 | 68 | 36 | 3.0 | 5.0 | 0.00 | 0.00 | 0.00 | 78 | 1016.1 |
| 20260903030042 | 68 | 36 | 2.0 | 3.0 | 0.00 | 0.00 | 0.00 | 77 | 1016.0 |
| 20260903025537 | 68 | 36 | 2.0 | 3.0 | 0.00 | 0.00 | 0.00 | 77 | 1016.1 |
| 20260903025029 | 68 | 37 | 2.0 | 3.0 | 0.00 | 0.00 | 0.00 | 76 | 1016.1 |
| 20260903024527 | 69 | 36 | 1.0 | 4.0 | 0.00 | 0.00 | 0.00 | 76 | 1016.1 |
| 20260903024024 | 68 | 36 | 3.0 | 5.0 | 0.00 | 0.00 | 0.00 | 76 | 1016.0 |
| 20260903023538 | 69 | 35 | 4.0 | 5.0 | 0.00 | 0.00 | 0.00 | 76 | 1016.0 |
| 20260903023055 | 69 | 36 | 4.0 | 5.0 | 0.00 | 0.00 | 0.00 | 76 | 1016.0 |
| 20260903022608 | 69 | 35 | 3.0 | 5.0 | 0.00 | 0.00 | 0.00 | 76 | 1016.0 |
| 20260903022525 | 69 | 35 | 3.0 | 5.0 | 0.00 | 0.00 | 0.00 | 76 | 1016.0 |
| 20260903022040 | 69 | 34 | 3.0 | 6.0 | 0.00 | 0.00 | 0.00 | 76 | 1016.0 |
| 20260903021540 | 69 | 35 | 5.0 | 8.0 | 0.00 | 0.00 | 0.00 | 75 | 1016.0 |
| 20260903021033 | 69 | 32 | 4.0 | 8.0 | 0.00 | 0.00 | 0.00 | 73 | 1016.0 |
| 20260903020547 | 69 | 35 | 4.0 | 8.0 | 0.00 | 0.00 | 0.00 | 73 | 1016.0 |
| 20260903020107 | 70 | 35 | 5.0 | 8.0 | 0.00 | 0.00 | 0.00 | 71 | 1015.9 |
| 20260903015558 | 70 | 35 | 4.0 | 8.0 | 0.00 | 0.00 | 0.00 | 70 | 1015.9 |
| 20260903015049 | 71 | 35 | 5.0 | 8.0 | 0.00 | 0.00 | 0.00 | 69 | 1015.9 |
| 20260903014527 | 71 | 35 | 5.0 | 8.0 | 0.00 | 0.00 | 0.00 | 67 | 1015.9 |
| 20260903014020 | 71 | 35 | 4.0 | 9.0 | 0.00 | 0.00 | 0.00 | 67 | 1015.9 |
| 20260903013513 | 71 | 35 | 5.0 | 9.0 | 0.00 | 0.00 | 0.00 | 67 | 1015.9 |
| 20260903013035 | 71 | 34 | 6.0 | 8.0 | 0.00 | 0.00 | 0.00 | 67 | 1015.9 |
| 20260903012608 | 71 | 35 | 4.0 | 9.0 | 0.00 | 0.00 | 0.00 | 68 | 1015.9 |
| 20260903012100 | 72 | 35 | 6.0 | 11.0 | 0.00 | 0.00 | 0.00 | 65 | 1015.9 |
| 20260903012017 | 72 | 35 | 6.0 | 11.0 | 0.00 | 0.00 | 0.00 | 65 | 1015.9 |
| 20260903011537 | 72 | 36 | 7.0 | 11.0 | 0.00 | 0.00 | 0.00 | 66 | 1015.9 |
| 20260903011029 | 72 | 35 | 7.0 | 9.0 | 0.00 | 0.00 | 0.00 | 65 | 1015.8 |
| 20260903010542 | 72 | 35 | 6.0 | 9.0 | 0.00 | 0.00 | 0.00 | 64 | 1015.8 |
| 20260903010113 | 72 | 36 | 7.0 | 9.0 | 0.00 | 0.00 | 0.00 | 63 | 1015.7 |
| 20260903005604 | 72 | 32 | 7.0 | 10.0 | 0.00 | 0.00 | 0.00 | 62 | 1015.7 |
| 20260903005522 | 72 | 32 | 7.0 | 10.0 | 0.00 | 0.00 | 0.00 | 62 | 1015.7 |
| 20260903005035 | 73 | 35 | 6.0 | 12.0 | 0.00 | 0.00 | 0.00 | 61 | 1015.7 |
| 20260903004534 | 73 | 35 | 7.0 | 12.0 | 0.00 | 0.00 | 0.00 | 60 | 1015.8 |
| 20260903004046 | 73 | 37 | 6.0 | 9.0 | 0.00 | 0.00 | 0.00 | 61 | 1015.6 |
| 20260903003541 | 73 | 35 | 4.0 | 9.0 | 0.00 | 0.00 | 0.00 | 62 | 1015.7 |
| 20260903003103 | 74 | 31 | 5.0 | 11.0 | 0.00 | 0.00 | 0.00 | 59 | 1015.7 |
| 20260903002610 | 74 | 35 | 6.0 | 11.0 | 0.00 | 0.00 | 0.00 | 58 | 1015.7 |
| 20260903002528 | 74 | 35 | 6.0 | 11.0 | 0.00 | 0.00 | 0.00 | 58 | 1015.7 |
| 20260903002101 | 74 | 35 | 6.0 | 11.0 | 0.00 | 0.00 | 0.00 | 59 | 1015.7 |
| 20260903001519 | 74 | 35 | 6.0 | 11.0 | 0.00 | 0.00 | 0.00 | 62 | 1015.7 |
| 20260903001017 | 74 | 35 | 6.0 | 10.0 | 0.00 | 0.00 | 0.00 | 60 | 1015.7 |
| 20260903000608 | 73 | 35 | 8.0 | 11.0 | 0.00 | 0.00 | 0.00 | 62 | 1015.7 |
| 20260903000526 | 73 | 35 | 8.0 | 11.0 | 0.00 | 0.00 | 0.00 | 62 | 1015.7 |
| 20260903000107 | 74 | 36 | 7.0 | 11.0 | 0.00 | 0.00 | 0.00 | 60 | 1015.7 |
| 20260903000024 | 74 | 36 | 7.0 | 11.0 | 0.00 | 0.00 | 0.00 | 60 | 1015.7 |
| 20260902235518 | 74 | 36 | 9.0 | 14.0 | 0.00 | 0.00 | 0.00 | 61 | 1015.8 |
| 20260902235033 | 75 | 35 | 8.0 | 14.0 | 0.00 | 0.00 | 0.00 | 62 | 1015.8 |
| 20260902234551 | 74 | 35 | 7.0 | 11.0 | 0.00 | 0.00 | 0.00 | 62 | 1015.9 |
| 20260902234104 | 74 | 37 | 6.0 | 11.0 | 0.00 | 0.00 | 0.00 | 60 | 1015.9 |
| 20260902234021 | 74 | 37 | 6.0 | 11.0 | 0.00 | 0.00 | 0.00 | 60 | 1015.9 |
| 20260902233555 | 74 | 35 | 8.0 | 11.0 | 0.00 | 0.00 | 0.00 | 59 | 1015.9 |
| 20260902233513 | 74 | 35 | 8.0 | 11.0 | 0.00 | 0.00 | 0.00 | 59 | 1015.9 |
| 20260902233034 | 74 | 35 | 7.0 | 12.0 | 0.00 | 0.00 | 0.00 | 61 | 1016.0 |
| 20260902232607 | 74 | 35 | 8.0 | 11.0 | 0.00 | 0.00 | 0.00 | 61 | 1016.0 |
| 20260902232019 | 74 | 35 | 8.0 | 13.0 | 0.00 | 0.00 | 0.00 | 59 | 1016.0 |
| 20260902231602 | 75 | 36 | 8.0 | 13.0 | 0.00 | 0.00 | 0.00 | 61 | 1016.0 |
| 20260902231519 | 75 | 36 | 8.0 | 13.0 | 0.00 | 0.00 | 0.00 | 61 | 1016.0 |
| 20260902231013 | 75 | 34 | 6.0 | 12.0 | 0.00 | 0.00 | 0.00 | 63 | 1016.1 |
| 20260902230607 | 74 | 32 | 10.0 | 13.0 | 0.00 | 0.00 | 0.00 | 60 | 1016.1 |
| 20260902230108 | 74 | 35 | 8.0 | 12.0 | 0.00 | 0.00 | 0.00 | 62 | 1016.1 |
| 20260902230026 | 74 | 35 | 8.0 | 12.0 | 0.00 | 0.00 | 0.00 | 62 | 1016.1 |
| 20260902225559 | 75 | 35 | 7.0 | 12.0 | 0.00 | 0.00 | 0.00 | 60 | 1016.1 |
| 20260902225111 | 75 | 34 | 7.0 | 14.0 | 0.00 | 0.00 | 0.00 | 60 | 1016.2 |
| 20260902225028 | 75 | 34 | 7.0 | 14.0 | 0.00 | 0.00 | 0.00 | 60 | 1016.2 |
| 20260902224526 | 74 | 34 | 9.0 | 14.0 | 0.00 | 0.00 | 0.00 | 61 | 1016.2 |
| 20260902224020 | 75 | 34 | 8.0 | 14.0 | 0.00 | 0.00 | 0.00 | 60 | 1016.2 |
| 20260902223513 | 75 | 35 | 9.0 | 14.0 | 0.00 | 0.00 | 0.00 | 61 | 1016.2 |
| 20260902223035 | 75 | 35 | 8.0 | 16.0 | 0.00 | 0.00 | 0.00 | 60 | 1016.3 |
| 20260902222549 | 75 | 34 | 11.0 | 16.0 | 0.00 | 0.00 | 0.00 | 63 | 1016.4 |
| 20260902222101 | 75 | 35 | 9.0 | 13.0 | 0.00 | 0.00 | 0.00 | 63 | 1016.4 |
| 20260902221610 | 75 | 34 | 10.0 | 12.0 | 0.00 | 0.00 | 0.00 | 63 | 1016.4 |
| 20260902221528 | 75 | 34 | 10.0 | 12.0 | 0.00 | 0.00 | 0.00 | 63 | 1016.4 |
| 20260902221041 | 75 | 35 | 8.0 | 12.0 | 0.00 | 0.00 | 0.00 | 64 | 1016.4 |
| 20260902220553 | 76 | 31 | 8.0 | 15.0 | 0.00 | 0.00 | 0.00 | 62 | 1016.4 |
| 20260902220052 | 76 | 34 | 8.0 | 12.0 | 0.00 | 0.00 | 0.00 | 63 | 1016.5 |
| 20260902215545 | 76 | 35 | 8.0 | 13.0 | 0.00 | 0.00 | 0.00 | 61 | 1016.5 |
| 20260902215037 | 75 | 32 | 9.0 | 15.0 | 0.00 | 0.00 | 0.00 | 62 | 1016.5 |
| 20260902214537 | 76 | 36 | 10.0 | 15.0 | 0.00 | 0.00 | 0.00 | 63 | 1016.5 |
| 20260902214029 | 75 | 32 | 8.0 | 16.0 | 0.00 | 0.00 | 0.00 | 65 | 1016.6 |
| 20260902213601 | 75 | 34 | 9.0 | 16.0 | 0.00 | 0.00 | 0.00 | 64 | 1016.6 |
| 20260902213039 | 75 | 35 | 6.0 | 18.0 | 0.00 | 0.00 | 0.00 | 63 | 1016.7 |
| 20260902212547 | 76 | 35 | 11.0 | 18.0 | 0.00 | 0.00 | 0.00 | 64 | 1016.6 |
| 20260902212023 | 76 | 35 | 9.0 | 15.0 | 0.00 | 0.00 | 0.00 | 65 | 1016.6 |
| 20260902211543 | 76 | 34 | 10.0 | 15.0 | 0.00 | 0.00 | 0.00 | 64 | 1016.7 |
| 20260902211113 | 76 | 36 | 11.0 | 15.0 | 0.00 | 0.00 | 0.00 | 63 | 1016.7 |
| 20260902210528 | 76 | 34 | 10.0 | 14.0 | 0.00 | 0.00 | 0.00 | 64 | 1016.7 |
| 20260902210107 | 76 | 36 | 9.0 | 14.0 | 0.00 | 0.00 | 0.00 | 62 | 1016.7 |
| 20260902205538 | 76 | 35 | 9.0 | 14.0 | 0.00 | 0.00 | 0.00 | 62 | 1016.7 |
| 20260902205015 | 76 | 35 | 6.0 | 12.0 | 0.00 | 0.00 | 0.00 | 63 | 1016.7 |
| 20260902204549 | 76 | 35 | 7.0 | 12.0 | 0.00 | 0.00 | 0.00 | 63 | 1016.7 |
| 20260902204026 | 76 | 35 | 8.0 | 12.0 | 0.00 | 0.00 | 0.00 | 62 | 1016.8 |
| 20260902203600 | 77 | 35 | 8.0 | 17.0 | 0.00 | 0.00 | 0.00 | 62 | 1016.8 |
| 20260902203518 | 77 | 35 | 8.0 | 17.0 | 0.00 | 0.00 | 0.00 | 62 | 1016.8 |
| 20260902203035 | 76 | 36 | 6.0 | 17.0 | 0.00 | 0.00 | 0.00 | 65 | 1016.8 |
| 20260902202547 | 76 | 36 | 7.0 | 13.0 | 0.00 | 0.00 | 0.00 | 64 | 1016.9 |
| 20260902202100 | 76 | 36 | 8.0 | 12.0 | 0.00 | 0.00 | 0.00 | 64 | 1016.9 |
| 20260902202018 | 76 | 36 | 8.0 | 12.0 | 0.00 | 0.00 | 0.00 | 64 | 1016.9 |
| 20260902201611 | 76 | 35 | 9.0 | 12.0 | 0.00 | 0.00 | 0.00 | 64 | 1016.9 |
| 20260902201023 | 77 | 35 | 9.0 | 12.0 | 0.00 | 0.00 | 0.00 | 61 | 1017.0 |
| 20260902200516 | 76 | 34 | 9.0 | 12.0 | 0.00 | 0.00 | 0.00 | 62 | 1017.1 |
| 20260902200015 | 76 | 35 | 9.0 | 13.0 | 0.00 | 0.00 | 0.00 | 62 | 1017.1 |
| 20260902195608 | 76 | 35 | 9.0 | 13.0 | 0.00 | 0.00 | 0.00 | 64 | 1017.1 |
| 20260902195526 | 76 | 35 | 9.0 | 13.0 | 0.00 | 0.00 | 0.00 | 64 | 1017.1 |
| 20260902195038 | 76 | 35 | 10.0 | 14.0 | 0.00 | 0.00 | 0.00 | 65 | 1017.2 |
| 20260902194609 | 76 | 35 | 8.0 | 14.0 | 0.00 | 0.00 | 0.00 | 64 | 1017.2 |
| 20260902194101 | 77 | 34 | 8.0 | 14.0 | 0.00 | 0.00 | 0.00 | 64 | 1017.1 |
| 20260902194018 | 77 | 34 | 8.0 | 14.0 | 0.00 | 0.00 | 0.00 | 64 | 1017.1 |
| 20260902193553 | 77 | 35 | 10.0 | 14.0 | 0.00 | 0.00 | 0.00 | 64 | 1017.2 |
| 20260902193053 | 77 | 35 | 8.0 | 16.0 | 0.00 | 0.00 | 0.00 | 64 | 1017.3 |
| 20260902192545 | 77 | 35 | 11.0 | 17.0 | 0.00 | 0.00 | 0.00 | 64 | 1017.4 |
| 20260902192017 | 77 | 34 | 11.0 | 17.0 | 0.00 | 0.00 | 0.00 | 64 | 1017.4 |
| 20260902191536 | 77 | 36 | 7.0 | 13.0 | 0.00 | 0.00 | 0.00 | 64 | 1017.3 |
| 20260902191109 | 78 | 35 | 7.0 | 12.0 | 0.00 | 0.00 | 0.00 | 63 | 1017.2 |
| 20260902190601 | 77 | 35 | 7.0 | 12.0 | 0.00 | 0.00 | 0.00 | 64 | 1017.3 |
| 20260902190110 | 77 | 34 | 4.0 | 11.0 | 0.00 | 0.00 | 0.00 | 64 | 1017.2 |
| 20260902185522 | 77 | 35 | 7.0 | 11.0 | 0.00 | 0.00 | 0.00 | 64 | 1017.4 |
| 20260902185056 | 77 | 34 | 5.0 | 10.0 | 0.00 | 0.00 | 0.00 | 65 | 1017.4 |
| 20260902185013 | 77 | 34 | 5.0 | 10.0 | 0.00 | 0.00 | 0.00 | 65 | 1017.4 |
| 20260902184557 | 77 | 35 | 7.0 | 10.0 | 0.00 | 0.00 | 0.00 | 64 | 1017.4 |
| 20260902184049 | 76 | 34 | 7.0 | 11.0 | 0.00 | 0.00 | 0.00 | 65 | 1017.5 |
| 20260902183542 | 77 | 31 | 5.0 | 10.0 | 0.00 | 0.00 | 0.00 | 61 | 1017.6 |
| 20260902183023 | 77 | 35 | 6.0 | 10.0 | 0.00 | 0.00 | 0.00 | 60 | 1017.6 |
| 20260902182517 | 77 | 34 | 6.0 | 10.0 | 0.00 | 0.00 | 0.00 | 62 | 1017.6 |
| 20260902182030 | 77 | 35 | 0.0 | 9.0 | 0.00 | 0.00 | 0.00 | 62 | 1017.7 |
| 20260902181549 | 76 | 36 | 5.0 | 12.0 | 0.00 | 0.00 | 0.00 | 62 | 1017.9 |
| 20260902181101 | 76 | 34 | 7.0 | 12.0 | 0.00 | 0.00 | 0.00 | 62 | 1017.9 |
| 20260902181018 | 76 | 34 | 7.0 | 12.0 | 0.00 | 0.00 | 0.00 | 62 | 1017.9 |
| 20260902180611 | 76 | 35 | 5.0 | 10.0 | 0.00 | 0.00 | 0.00 | 64 | 1017.9 |
| 20260902180045 | 77 | 35 | 3.0 | 10.0 | 0.00 | 0.00 | 0.00 | 64 | 1017.9 |
| 20260902175521 | 76 | 34 | 4.0 | 8.0 | 0.00 | 0.00 | 0.00 | 63 | 1017.9 |
| 20260902175013 | 76 | 35 | 3.0 | 8.0 | 0.00 | 0.00 | 0.00 | 67 | 1017.9 |
| 20260902174549 | 75 | 35 | 2.0 | 7.0 | 0.00 | 0.00 | 0.00 | 67 | 1017.8 |
| 20260902174101 | 74 | 36 | 4.0 | 7.0 | 0.00 | 0.00 | 0.00 | 67 | 1018.0 |
| 20260902173533 | 74 | 34 | 4.0 | 7.0 | 0.00 | 0.00 | 0.00 | 67 | 1018.0 |
| 20260902173055 | 74 | 35 | 2.0 | 6.0 | 0.00 | 0.00 | 0.00 | 67 | 1017.9 |
| 20260902172606 | 74 | 35 | 4.0 | 6.0 | 0.00 | 0.00 | 0.00 | 67 | 1017.9 |
| 20260902172523 | 74 | 35 | 4.0 | 6.0 | 0.00 | 0.00 | 0.00 | 67 | 1017.9 |
| 20260902172017 | 73 | 36 | 3.0 | 8.0 | 0.00 | 0.00 | 0.00 | 69 | 1017.9 |
| 20260902171610 | 73 | 35 | 4.0 | 9.0 | 0.00 | 0.00 | 0.00 | 70 | 1017.9 |
| 20260902171527 | 73 | 35 | 4.0 | 9.0 | 0.00 | 0.00 | 0.00 | 70 | 1017.9 |
| 20260902171021 | 72 | 34 | 3.0 | 9.0 | 0.00 | 0.00 | 0.00 | 72 | 1017.8 |
| 20260902170537 | 72 | 36 | 3.0 | 5.0 | 0.00 | 0.00 | 0.00 | 71 | 1017.8 |
| 20260902170037 | 73 | 35 | 2.0 | 3.0 | 0.00 | 0.00 | 0.00 | 71 | 1017.8 |
| 20260902165550 | 72 | 37 | 0.0 | 6.0 | 0.00 | 0.00 | 0.00 | 72 | 1017.7 |
| 20260902165023 | 71 | 32 | 1.0 | 6.0 | 0.00 | 0.00 | 0.00 | 75 | 1017.8 |
| 20260902164607 | 70 | 36 | 1.0 | 3.0 | 0.00 | 0.00 | 0.00 | 75 | 1017.9 |
| 20260902164524 | 70 | 36 | 1.0 | 3.0 | 0.00 | 0.00 | 0.00 | 75 | 1017.9 |
| 20260902164037 | 71 | 36 | 1.0 | 4.0 | 0.00 | 0.00 | 0.00 | 74 | 1017.9 |
| 20260902163549 | 70 | 34 | 0.0 | 6.0 | 0.00 | 0.00 | 0.00 | 76 | 1017.9 |
| 20260902163046 | 70 | 32 | 1.0 | 6.0 | 0.00 | 0.00 | 0.00 | 77 | 1017.8 |
| 20260902162519 | 69 | 36 | 2.0 | 6.0 | 0.00 | 0.00 | 0.00 | 78 | 1017.7 |
| 20260902162113 | 69 | 35 | 2.0 | 5.0 | 0.00 | 0.00 | 0.00 | 78 | 1017.9 |
| 20260902162030 | 69 | 35 | 2.0 | 5.0 | 0.00 | 0.00 | 0.00 | 78 | 1017.9 |
| 20260902161529 | 68 | 37 | 2.0 | 5.0 | 0.00 | 0.00 | 0.00 | 80 | 1017.8 |
| 20260902161023 | 68 | 38 | 3.0 | 5.0 | 0.00 | 0.00 | 0.00 | 80 | 1017.8 |
| 20260902160537 | 68 | 35 | 1.0 | 7.0 | 0.00 | 0.00 | 0.00 | 80 | 1017.7 |
| 20260902160015 | 68 | 35 | 3.0 | 7.0 | 0.00 | 0.00 | 0.00 | 80 | 1017.9 |
| 20260902155611 | 68 | 37 | 2.0 | 6.0 | 0.00 | 0.00 | 0.00 | 81 | 1017.8 |
| 20260902155528 | 68 | 37 | 2.0 | 6.0 | 0.00 | 0.00 | 0.00 | 81 | 1017.8 |
| 20260902155021 | 68 | 36 | 2.0 | 7.0 | 0.00 | 0.00 | 0.00 | 82 | 1017.8 |
| 20260902154542 | 67 | 34 | 2.0 | 7.0 | 0.00 | 0.00 | 0.00 | 82 | 1017.7 |
| 20260902154034 | 67 | 36 | 3.0 | 6.0 | 0.00 | 0.00 | 0.00 | 82 | 1017.7 |
| 20260902153607 | 67 | 35 | 1.0 | 6.0 | 0.00 | 0.00 | 0.00 | 84 | 1017.8 |
| 20260902153045 | 66 | 36 | 3.0 | 5.0 | 0.00 | 0.00 | 0.00 | 84 | 1017.8 |
| 20260902152557 | 66 | 36 | 2.0 | 6.0 | 0.00 | 0.00 | 0.00 | 85 | 1017.8 |
| 20260902152028 | 66 | 36 | 3.0 | 6.0 | 0.00 | 0.00 | 0.00 | 86 | 1017.8 |
| 20260902151527 | 65 | 35 | 2.0 | 6.0 | 0.00 | 0.00 | 0.00 | 87 | 1017.7 |
| 20260902151101 | 65 | 35 | 3.0 | 6.0 | 0.00 | 0.00 | 0.00 | 87 | 1017.7 |
| 20260902150532 | 64 | 35 | 4.0 | 6.0 | 0.00 | 0.00 | 0.00 | 88 | 1017.8 |
| 20260902150033 | 64 | 35 | 3.0 | 6.0 | 0.00 | 0.00 | 0.00 | 88 | 1017.8 |
| 20260902145607 | 64 | 34 | 3.0 | 5.0 | 0.00 | 0.00 | 0.00 | 88 | 1017.8 |
| 20260902145039 | 63 | 34 | 3.0 | 5.0 | 0.00 | 0.00 | 0.00 | 89 | 1017.8 |
| 20260902144538 | 63 | 36 | 3.0 | 7.0 | 0.00 | 0.00 | 0.00 | 90 | 1017.8 |
| 20260902144111 | 63 | 34 | 3.0 | 7.0 | 0.00 | 0.00 | 0.00 | 90 | 1017.9 |
| 20260902143545 | 63 | 36 | 3.0 | 5.0 | 0.00 | 0.00 | 0.00 | 90 | 1017.9 |
| 20260902143107 | 63 | 37 | 3.0 | 6.0 | 0.00 | 0.00 | 0.00 | 90 | 1017.8 |
| 20260902143024 | 63 | 37 | 3.0 | 6.0 | 0.00 | 0.00 | 0.00 | 90 | 1017.8 |
| 20260902142558 | 63 | 34 | 2.0 | 6.0 | 0.00 | 0.00 | 0.00 | 90 | 1017.8 |
| 20260902142515 | 63 | 34 | 2.0 | 6.0 | 0.00 | 0.00 | 0.00 | 90 | 1017.8 |
| 20260902142048 | 63 | 32 | 2.0 | 6.0 | 0.00 | 0.00 | 0.00 | 91 | 1017.7 |
| 20260902141610 | 63 | 32 | 3.0 | 6.0 | 0.00 | 0.00 | 0.00 | 91 | 1017.7 |
| 20260902141116 | 62 | 36 | 3.0 | 6.0 | 0.00 | 0.00 | 0.00 | 91 | 1017.7 |
| 20260902141034 | 62 | 36 | 3.0 | 6.0 | 0.00 | 0.00 | 0.00 | 91 | 1017.7 |
| 20260902140548 | 62 | 35 | 3.0 | 6.0 | 0.00 | 0.00 | 0.00 | 91 | 1017.6 |
| 20260902140031 | 62 | 32 | 3.0 | 6.0 | 0.00 | 0.00 | 0.00 | 91 | 1017.5 |
| 20260902135525 | 62 | 32 | 3.0 | 6.0 | 0.00 | 0.00 | 0.00 | 91 | 1017.4 |
| 20260902135058 | 62 | 36 | 3.0 | 5.0 | 0.00 | 0.00 | 0.00 | 91 | 1017.4 |
| 20260902134554 | 62 | 32 | 3.0 | 5.0 | 0.00 | 0.00 | 0.00 | 91 | 1017.2 |
| 20260902134107 | 62 | 36 | 3.0 | 5.0 | 0.00 | 0.00 | 0.00 | 91 | 1017.2 |
| 20260902133518 | 62 | 34 | 2.0 | 5.0 | 0.00 | 0.00 | 0.00 | 91 | 1017.1 |
| 20260902133101 | 62 | 32 | 2.0 | 5.0 | 0.00 | 0.00 | 0.00 | 91 | 1017.1 |
| 20260902132612 | 62 | 34 | 3.0 | 4.0 | 0.00 | 0.00 | 0.00 | 91 | 1017.1 |
| 20260902132530 | 62 | 34 | 3.0 | 4.0 | 0.00 | 0.00 | 0.00 | 91 | 1017.1 |
| 20260902132043 | 62 | 34 | 2.0 | 4.0 | 0.00 | 0.00 | 0.00 | 91 | 1017.0 |
| 20260902131615 | 62 | 35 | 1.0 | 4.0 | 0.00 | 0.00 | 0.00 | 91 | 1017.0 |
| 20260902131105 | 62 | 36 | 2.0 | 4.0 | 0.00 | 0.00 | 0.00 | 91 | 1017.0 |
| 20260902130616 | 62 | 35 | 2.0 | 4.0 | 0.00 | 0.00 | 0.00 | 91 | 1016.9 |
| 20260902130054 | 63 | 34 | 3.0 | 4.0 | 0.00 | 0.00 | 0.00 | 91 | 1016.9 |
| 20260902125548 | 63 | 32 | 3.0 | 4.0 | 0.00 | 0.00 | 0.00 | 91 | 1016.9 |
| 20260902125020 | 63 | 36 | 2.0 | 4.0 | 0.00 | 0.00 | 0.00 | 91 | 1016.9 |
| 20260902124540 | 63 | 36 | 3.0 | 4.0 | 0.00 | 0.00 | 0.00 | 91 | 1016.8 |
| 20260902124054 | 63 | 36 | 2.0 | 3.0 | 0.00 | 0.00 | 0.00 | 91 | 1016.8 |
| 20260902123606 | 63 | 34 | 2.0 | 4.0 | 0.00 | 0.00 | 0.00 | 91 | 1016.8 |
| 20260902123523 | 63 | 34 | 2.0 | 4.0 | 0.00 | 0.00 | 0.00 | 91 | 1016.8 |
| 20260902123115 | 63 | 32 | 3.0 | 4.0 | 0.00 | 0.00 | 0.00 | 91 | 1016.8 |
| 20260902122605 | 63 | 36 | 3.0 | 4.0 | 0.00 | 0.00 | 0.00 | 91 | 1016.8 |
| 20260902122057 | 63 | 35 | 2.0 | 3.0 | 0.00 | 0.00 | 0.00 | 91 | 1016.7 |
| 20260902121533 | 63 | 34 | 2.0 | 4.0 | 0.00 | 0.00 | 0.00 | 91 | 1016.8 |
| 20260902121028 | 63 | 34 | 2.0 | 4.0 | 0.00 | 0.00 | 0.00 | 91 | 1016.7 |
| 20260902120542 | 63 | 32 | 2.0 | 4.0 | 0.00 | 0.00 | 0.00 | 91 | 1016.7 |
| 20260902120104 | 63 | 34 | 3.0 | 4.0 | 0.00 | 0.00 | 0.00 | 91 | 1016.7 |
| 20260902120021 | 63 | 34 | 3.0 | 4.0 | 0.00 | 0.00 | 0.00 | 91 | 1016.7 |
| 20260902115515 | 63 | 38 | 2.0 | 4.0 | 0.00 | 0.00 | 0.00 | 90 | 1016.8 |
| 20260902115029 | 63 | 36 | 1.0 | 4.0 | 0.00 | 0.00 | 0.00 | 90 | 1016.9 |
| 20260902114548 | 63 | 34 | 2.0 | 4.0 | 0.00 | 0.00 | 0.00 | 91 | 1016.9 |
| 20260902114100 | 63 | 34 | 3.0 | 4.0 | 0.00 | 0.00 | 0.00 | 91 | 1016.8 |
| 20260902114018 | 63 | 34 | 3.0 | 4.0 | 0.00 | 0.00 | 0.00 | 91 | 1016.8 |
| 20260902113531 | 63 | 35 | 2.0 | 4.0 | 0.00 | 0.00 | 0.00 | 91 | 1016.8 |
| 20260902113051 | 63 | 34 | 2.0 | 4.0 | 0.00 | 0.00 | 0.00 | 90 | 1016.8 |
| 20260902112604 | 63 | 36 | 2.0 | 4.0 | 0.00 | 0.00 | 0.00 | 91 | 1016.9 |
| 20260902112521 | 63 | 36 | 2.0 | 4.0 | 0.00 | 0.00 | 0.00 | 91 | 1016.9 |
| 20260902112015 | 63 | 36 | 2.0 | 3.0 | 0.00 | 0.00 | 0.00 | 91 | 1016.9 |
| 20260902111533 | 63 | 35 | 1.0 | 4.0 | 0.00 | 0.00 | 0.00 | 90 | 1016.8 |
| 20260902111048 | 63 | 34 | 3.0 | 4.0 | 0.00 | 0.00 | 0.00 | 90 | 1016.8 |
| 20260902110542 | 64 | 35 | 3.0 | 4.0 | 0.00 | 0.00 | 0.00 | 90 | 1016.8 |
| 20260902110104 | 64 | 36 | 2.0 | 3.0 | 0.00 | 0.00 | 0.00 | 90 | 1016.8 |
| 20260902105514 | 64 | 35 | 1.0 | 4.0 | 0.00 | 0.00 | 0.00 | 90 | 1016.9 |
| 20260902105027 | 64 | 34 | 2.0 | 4.0 | 0.00 | 0.00 | 0.00 | 90 | 1016.9 |
| 20260902104610 | 64 | 32 | 2.0 | 3.0 | 0.00 | 0.00 | 0.00 | 90 | 1016.9 |
| 20260902104528 | 64 | 32 | 2.0 | 3.0 | 0.00 | 0.00 | 0.00 | 90 | 1016.9 |
| 20260902104103 | 64 | 35 | 1.0 | 3.0 | 0.00 | 0.00 | 0.00 | 90 | 1016.9 |
| 20260902104020 | 64 | 35 | 1.0 | 3.0 | 0.00 | 0.00 | 0.00 | 90 | 1016.9 |
| 20260902103609 | 64 | 35 | 1.0 | 2.0 | 0.00 | 0.00 | 0.00 | 91 | 1017.0 |
| 20260902103110 | 63 | 34 | 0.0 | 0.0 | 0.00 | 0.00 | 0.00 | 90 | 1017.0 |
| 20260902103027 | 63 | 34 | 0.0 | 0.0 | 0.00 | 0.00 | 0.00 | 90 | 1017.0 |
| 20260902102520 | 63 | 37 | 0.0 | 2.0 | 0.00 | 0.00 | 0.00 | 90 | 1017.1 |
| 20260902102053 | 64 | 32 | 0.0 | 2.0 | 0.00 | 0.00 | 0.00 | 90 | 1017.2 |
| 20260902101532 | 64 | 36 | 1.0 | 3.0 | 0.00 | 0.00 | 0.00 | 90 | 1017.2 |
| 20260902101106 | 64 | 36 | 2.0 | 3.0 | 0.00 | 0.00 | 0.00 | 90 | 1017.2 |
| 20260902101024 | 64 | 36 | 2.0 | 3.0 | 0.00 | 0.00 | 0.00 | 90 | 1017.2 |
| 20260902100558 | 64 | 38 | 1.0 | 3.0 | 0.00 | 0.00 | 0.00 | 90 | 1017.3 |
| 20260902100515 | 64 | 38 | 1.0 | 3.0 | 0.00 | 0.00 | 0.00 | 90 | 1017.3 |
| 20260902100057 | 64 | 34 | 1.0 | 3.0 | 0.00 | 0.00 | 0.00 | 90 | 1017.3 |
| 20260902095608 | 64 | 35 | 1.0 | 3.0 | 0.00 | 0.00 | 0.00 | 89 | 1017.3 |
| 20260902095526 | 64 | 35 | 1.0 | 3.0 | 0.00 | 0.00 | 0.00 | 89 | 1017.3 |
| 20260902095042 | 64 | 34 | 1.0 | 2.0 | 0.00 | 0.00 | 0.00 | 89 | 1017.3 |
| 20260902094604 | 64 | 34 | 1.0 | 3.0 | 0.00 | 0.00 | 0.00 | 89 | 1017.4 |
| 20260902094521 | 64 | 34 | 1.0 | 3.0 | 0.00 | 0.00 | 0.00 | 89 | 1017.4 |
| 20260902094014 | 64 | 36 | 1.0 | 3.0 | 0.00 | 0.00 | 0.00 | 89 | 1017.4 |
| 20260902093528 | 64 | 34 | 1.0 | 3.0 | 0.00 | 0.00 | 0.00 | 89 | 1017.4 |
| 20260902093027 | 64 | 35 | 0.0 | 2.0 | 0.00 | 0.00 | 0.00 | 89 | 1017.4 |
| 20260902092601 | 65 | 35 | 1.0 | 2.0 | 0.00 | 0.00 | 0.00 | 89 | 1017.4 |
| 20260902092033 | 65 | 35 | 0.0 | 2.0 | 0.00 | 0.00 | 0.00 | 89 | 1017.5 |
| 20260902091534 | 64 | 34 | 0.0 | 2.0 | 0.00 | 0.00 | 0.00 | 89 | 1017.5 |
| 20260902091027 | 64 | 35 | 0.0 | 1.0 | 0.00 | 0.00 | 0.00 | 89 | 1017.5 |
| 20260902090542 | 64 | 37 | 0.0 | 2.0 | 0.00 | 0.00 | 0.00 | 89 | 1017.5 |
| 20260902090043 | 64 | 34 | 1.0 | 2.0 | 0.00 | 0.00 | 0.00 | 89 | 1017.6 |
| 20260902085515 | 63 | 34 | 0.0 | 2.0 | 0.00 | 0.00 | 0.00 | 88 | 1017.6 |
| 20260902085050 | 63 | 34 | 0.0 | 2.0 | 0.00 | 0.00 | 0.00 | 87 | 1017.7 |
| 20260902084529 | 64 | 36 | 0.0 | 2.0 | 0.00 | 0.00 | 0.00 | 87 | 1017.7 |
| 20260902084023 | 64 | 34 | 0.0 | 2.0 | 0.00 | 0.00 | 0.00 | 87 | 1017.8 |
| 20260902083542 | 65 | 36 | 0.0 | 2.0 | 0.00 | 0.00 | 0.00 | 87 | 1017.7 |
| 20260902083021 | 65 | 37 | 0.0 | 2.0 | 0.00 | 0.00 | 0.00 | 87 | 1017.6 |
| 20260902082535 | 66 | 37 | 0.0 | 2.0 | 0.00 | 0.00 | 0.00 | 87 | 1017.5 |
| 20260902082026 | 66 | 34 | 1.0 | 2.0 | 0.00 | 0.00 | 0.00 | 88 | 1017.5 |
| 20260902081605 | 65 | 34 | 1.0 | 2.0 | 0.00 | 0.00 | 0.00 | 87 | 1017.6 |
| 20260902081055 | 65 | 37 | 0.0 | 2.0 | 0.00 | 0.00 | 0.00 | 87 | 1017.6 |
| 20260902080607 | 66 | 35 | 0.0 | 0.0 | 0.00 | 0.00 | 0.00 | 86 | 1017.6 |
| 20260902080108 | 66 | 34 | 0.0 | 0.0 | 0.00 | 0.00 | 0.00 | 86 | 1017.6 |